User: anonymous   Login
Location: *
(44.1392°N, 4.8079°E)
Time: 07:02:59
(UTC+00:00)
Language:

BREEZE-M DEB (TANK) - Orbit

View from above orbital plane
View from above orbital plane
View from above satellite
View from above satellite

Ground track
Ground track

The orbit data is extracted from the following two-line orbital elements,

1 37220U 10061C   21265.47668645  .00000659  00000-0  24545-3 0  9997
2 37220  49.3495 135.2272 5464675 156.1699 243.8648  4.80695193189161
Epoch (UTC): 22 September 2021 11:26:25
Eccentricity: 0.5464675
inclination: 49.3495°
perigee height: 348 km
apogee height: 16556 km
right ascension of ascending node: 135.2272°
argument of perigee: 156.1699°
revolutions per day: 4.80695193
mean anomaly at epoch: 243.8648°
orbit number at epoch: 18916

The dashed part of the orbit path shows where the satellite is in the earth's shadow,  

DLR